This is the latest recevied weather packets stored in our database for station/object KI4NG. If no packets are shown the sender has not sent any weather packets the latest 10 day(s).
| Time | Temp. | Humidity | Pressure | Rain* | Wind** | Luminosity | Snow |
|---|---|---|---|---|---|---|---|
| 1777749822 | 13.33° C | 53% | 1016.6 hPa | 0 mm | - | 176 W/m² | - |
| 1777749519 | 13.89° C | 52% | 1016.2 hPa | 0 mm | - | 206 W/m² | - |
| 1777749217 | 13.89° C | 49% | 1016.4 hPa | 0 mm | - | 235 W/m² | - |
| 1777748914 | 14.44° C | 48% | 1016.4 hPa | 0 mm | - | 271 W/m² | - |
| 1777748611 | 15° C | 48% | 1016.4 hPa | 0 mm | - | 303 W/m² | - |
| 1777748307 | 15° C | 51% | 1016.2 hPa | 0 mm | - | 238 W/m² | - |
| 1777748003 | 15° C | 47% | 1016.4 hPa | 0 mm | - | 622 W/m² | - |
| 1777747700 | 15° C | 46% | 1016.4 hPa | 0 mm | - | 713 W/m² | - |
| 1777747395 | 15° C | 47% | 1016.4 hPa | 0 mm | - | 782 W/m² | - |
| 1777747092 | 14.44° C | 48% | 1016.4 hPa | 0 mm | - | 832 W/m² | - |
| 1777746788 | 13.89° C | 51% | 1016.7 hPa | 0 mm | - | 419 W/m² | - |
| 1777746484 | 13.89° C | 53% | 1016.5 hPa | 0 mm | - | 807 W/m² | - |
| 1777746179 | 13.33° C | 52% | 1016.6 hPa | 0 mm | - | 316 W/m² | - |
| 1777745875 | 13.33° C | 51% | 1016.7 hPa | 0 mm | - | 228 W/m² | - |
| 1777745570 | 14.44° C | 50% | 1016.4 hPa | 0 mm | - | 223 W/m² | - |
| 1777745267 | 15° C | 48% | 1016.6 hPa | 0 mm | - | 334 W/m² | - |
| 1777744964 | 15° C | 52% | 1016.6 hPa | 0 mm | - | 968 W/m² | - |
| 1777744664 | 13.89° C | 50% | 1016.5 hPa | 0 mm | - | 648 W/m² | - |
| 1777744358 | 13.89° C | 51% | 1016.5 hPa | 0 mm | - | 756 W/m² | - |
| 1777744056 | 13.89° C | 51% | 1016.8 hPa | 0 mm | - | 328 W/m² | - |
| 1777743753 | 14.44° C | 49% | 1016.5 hPa | 0 mm | - | 417 W/m² | - |
| 1777743450 | 14.44° C | 46% | 1016.7 hPa | 0 mm | - | 262 W/m² | - |
| 1777743147 | 13.89° C | 49% | 1016.7 hPa | 0 mm | - | 355 W/m² | - |
| 1777742845 | 15° C | 46% | 1016.8 hPa | 0 mm | - | 605 W/m² | - |
| 1777742541 | 14.44° C | 48% | 1016.8 hPa | 0 mm | - | 326 W/m² | - |
* Rain latest hour (hover to see other rain measurements)
** Current wind speed in m/s (hover to see current wind gust speed)